Regional Weather Roundup
Issued by NWS Sterling, VA

Home | Current Version | Previous Version | Graphics & Text | Print | Product List | Glossary On
Versions: 1 2 3 4 5 6 7 8 9 10 11 12 13 14 15 16 17 18 19 20 21 22 23 24 25 26 27 28 29 30 31 32 33 34 35 36 37 38 39 40 41 42 43 44 45 46 47 48 49 50
000
ASUS41 KLWX 272311
RWRLWX

REGIONAL WEATHER ROUNDUP
NATIONAL WEATHER SERVICE BALTIMORE MD/WASHINGTON DC
700 PM EDT SAT MAY 27 2017

Note: "FAIR" indicates few or no clouds below 12,000 feet
with no significant weather and/or obstructions to visibility.
 TC=TEMPERATURE CELSIUS

 * =Non NWS site. Station does not report precipitation (e.g. rain,
    snow, etc.), thunder, or fog.

DCZ001-MDZ009-015-VAZ040>042-051-053>054-280000-
WASHINGTON METRO

CITY           SKY/WX    TMP DP  RH WIND       PRES   REMARKS
WASHINGTON NAT CLOUDY    70  63  78 E6        29.88S
DULLES         CLOUDY    69  61  75 E3        29.88S
ANDREWS AFB    CLOUDY    67  59  76 NE5       29.88R
FT BELVOIR     CLOUDY    70  58  66 CALM      29.88R
QUANTICO       CLOUDY    73  63  70 NE10      29.87S
COLLEGE PARK*  CLOUDY    69  59  71 E3        29.88S
LEESBURG*      PTSUNNY   70  64  83 NE3       29.90S
MANASSAS*      CLOUDY    72  62  71 NE8       29.88R
GAITHERSBURG*  CLOUDY    67  62  84 CALM      29.90S

$$

MDZ006>007-011-014-280000-
BALTIMORE METRO

CITY           SKY/WX    TMP DP  RH WIND       PRES   REMARKS
BWI AIRPORT    CLOUDY    66  60  81 E7        29.88S
MD SCIENCE CTR   N/A     68  62  81 MISG      29.89S
MARTIN STATE   CLOUDY    64  64 100 CALM      29.90F
ANNAPOLIS      CLOUDY    68  62  81 CALM      29.89S
FORT MEADE*    CLOUDY    64  57  77 E3        29.91S

$$

MDZ012-015-019>023-280000-
MARYLAND EASTERN SHORE

CITY           SKY/WX    TMP DP  RH WIND       PRES   REMARKS
OCEAN CITY     PTSUNNY   66  58  75 SE5       29.90F
SALISBURY      PTSUNNY   71  57  61 SE7       29.88S
BAY BRIDGE AP* CLOUDY    66  61  82 NE6       29.89R
CAMBRIDGE*     CLOUDY    70  63  78 NE7       29.88R
EASTON*        PTSUNNY   70  61  73 NE8       29.92S

$$

MDZ017>025-280000-
SOUTHERN MARYLAND

CITY           SKY/WX    TMP DP  RH WIND       PRES   REMARKS
PATUXENT RIVER CLOUDY    73  63  70 E7        29.87R
ST INIGOES     PTSUNNY   72  63  73 NE6       29.86R
LEONARDTOWN*   CLOUDY    70  59  68 N5        29.89R

$$

MDZ003>005-280000-
NORTH CENTRAL MARYLAND

CITY           SKY/WX    TMP DP  RH WIND       PRES   REMARKS
FREDERICK*     CLOUDY    70  68  94 CALM      29.92S
HAGERSTOWN APT CLOUDY    67  62  84 CALM      29.89S
WESTMINSTER*   CLOUDY    64  63  94 CALM      29.90S

$$

MDZ501>502-280000-
WESTERN MARYLAND

CITY           SKY/WX    TMP DP  RH WIND       PRES   REMARKS
OAKLAND*       CLOUDY    59  59 100 NW3       29.95S FOG
CUMBERLAND*    PTSUNNY   66  63  88 CALM      29.94R

$$

VAZ025>031-280000-
SHENANDOAH VALLEY

CITY           SKY/WX    TMP DP  RH WIND       PRES   REMARKS
WINCHESTER*    CLOUDY    64  59  82 CALM      29.89S
FRONT ROYAL*   MOSUNNY   68  63  83 NE5       29.88S
LURAY*         MOSUNNY   73  64  73 E3        29.87S
NEW MARKET*    MOSUNNY   72  63  73 NE5       29.85F
STAUNTON*      CLOUDY    74  65  75 E7        29.89S
WAYNESBORO*    MOSUNNY   73  68  83 S3        29.88S

$$

WVZ021-048>050-054>055-280000-
EASTERN WEST VIRGINIA PANHANDLE

CITY           SKY/WX    TMP DP  RH WIND       PRES   REMARKS
MARTINSBURG    CLOUDY    65  61  87 CALM      29.89S
PETERSBURG*    CLOUDY    72  66  81 N5        29.87F

$$

VAZ036>039-050-280000-
CENTRAL FOOTHILLS

CITY           SKY/WX    TMP DP  RH WIND       PRES   REMARKS
CHARLOTTESVILL TSTM      70  67  90 SW6       29.88R
CULPEPER*      MOSUNNY   73  65  75 N7        29.87F
ORANGE*        CLOUDY    72  68  88 NE3       29.86R
GORDONSVILLE*  CLOUDY    71  68  92 CALM      29.85S
WARRENTON*     PTSUNNY   73  61  65 NE9       29.86F

$$

VAZ055>057-280000-
NORTH AND CENTRAL PIEDMONT

CITY           SKY/WX    TMP DP  RH WIND       PRES   REMARKS
FREDERICKSBRG* CLOUDY    74  65  72 NE6       29.85F
STAFFORD*      CLOUDY    71  64  78 NE12      29.90S

$$

NCZ024-NYZ072-PAZ021-071-VAZ022-071-280000-
OTHER REGIONAL OBSERVATIONS

CITY           SKY/WX    TMP DP  RH WIND       PRES   REMARKS
NEW YORK CITY  CLOUDY    70  57  63 VRB3      29.90R
PHILADELPHIA   PTSUNNY   71  57  61 SW9       29.89F
PITTSBURGH     PTSUNNY   71  62  73 NW3       29.89S
ROANOKE        CLOUDY    81  63  54 W6        29.89S
RICHMOND       CLOUDY    71  67  87 S6        29.83S THUNDER
RALEIGH        PTSUNNY   84  66  54 SW12      29.86S

$$

ANZ530>537-280000-
MARINE OBSERVATIONS

STATION/POSITION TIME  TEMP    WIND        PRES
                       AIR SEA DIR/SP/G
                 (UTC) (F)     (DEG/KT/KT) (MB)
THOMAS PT LIGHT  2300   65 64   10/  9/ 10   N/A
BALT KEY BRIDGE  2248   64      50/  5/  6 1012.0F
COVE POINT       2248   69      50/  8/ 10 1012.0S
LEWISETTA        2248   71 71  110/ 13/ 15 1010.8R
SOLOMONS ISLAND  2248   71 68   20/  8/  9   N/A
PINEY POINT      2248          100/  8/  8   N/A

$$




USA.gov is the U.S. government's official web portal to all federal, state and local government web resources and services.